| time (UTC) | temp F | wind direction | speed knots | gust knots | rain 1hr in | rain 24hr in | rain mn in | humidity % | barometer mb |
| 20260504224550 | 71 | 196 | 0.0 | 6.1 | 0.00 | 0.00 | 0.00 | 33 | 1007.0 |
| 20260504223049 | 71 | 232 | 1.7 | 6.1 | 0.00 | 0.00 | 0.00 | 32 | 1006.9 |
| 20260504221548 | 71 | 0 | 0.9 | 5.2 | 0.00 | 0.00 | 0.00 | 31 | 1007.0 |
| 20260504220109 | 72 | 166 | 2.6 | 7.0 | 0.00 | 0.00 | 0.00 | 29 | 1006.8 |
| 20260504214551 | 72 | 198 | 0.9 | 7.0 | 0.00 | 0.00 | 0.00 | 31 | 1006.9 |
| 20260504213051 | 73 | 0 | 0.9 | 6.1 | 0.00 | 0.00 | 0.00 | 30 | 1006.8 |
| 20260504211554 | 73 | 151 | 1.7 | 8.7 | 0.00 | 0.00 | 0.00 | 29 | 1006.9 |
| 20260504210045 | 73 | 266 | 2.6 | 7.0 | 0.00 | 0.00 | 0.00 | 29 | 1006.9 |
| 20260504204545 | 72 | 316 | 2.6 | 8.7 | 0.00 | 0.00 | 0.00 | 29 | 1006.9 |
| 20260504203045 | 73 | 183 | 3.5 | 7.8 | 0.00 | 0.00 | 0.00 | 29 | 1006.7 |
| 20260504201551 | 73 | 194 | 1.7 | 11.3 | 0.00 | 0.00 | 0.00 | 27 | 1006.8 |
| 20260504200055 | 73 | 309 | 1.7 | 7.0 | 0.00 | 0.00 | 0.00 | 28 | 1006.9 |
| 20260504194550 | 73 | 178 | 2.6 | 8.7 | 0.00 | 0.00 | 0.00 | 28 | 1006.9 |
| 20260504193050 | 73 | 317 | 1.7 | 8.7 | 0.00 | 0.00 | 0.00 | 28 | 1006.8 |
| 20260504191555 | 73 | 323 | 1.7 | 7.0 | 0.00 | 0.00 | 0.00 | 27 | 1007.0 |
| 20260504190110 | 73 | 206 | 1.7 | 6.1 | 0.00 | 0.00 | 0.00 | 30 | 1007.3 |
| 20260504184610 | 72 | 260 | 2.6 | 9.6 | 0.00 | 0.00 | 0.00 | 28 | 1007.5 |
| 20260504183053 | 71 | 212 | 2.6 | 9.6 | 0.00 | 0.00 | 0.00 | 28 | 1007.5 |
| 20260504181551 | 71 | 297 | 2.6 | 8.7 | 0.00 | 0.00 | 0.00 | 29 | 1007.5 |
| 20260504180059 | 71 | 303 | 2.6 | 13.0 | 0.00 | 0.00 | 0.00 | 30 | 1007.4 |
| 20260504174552 | 70 | 182 | 2.6 | 8.7 | 0.00 | 0.00 | 0.00 | 32 | 1007.8 |
| 20260504173055 | 70 | 284 | 3.5 | 9.6 | 0.00 | 0.00 | 0.00 | 31 | 1007.9 |
| 20260504171551 | 69 | 166 | 2.6 | 8.7 | 0.00 | 0.00 | 0.00 | 33 | 1008.0 |
| 20260504081549 | 44 | 100 | 0.0 | 1.7 | 0.00 | 0.00 | 0.00 | 63 | 1010.8 |
| 20260504044559 | 37 | 0 | 0.0 | 0.0 | 0.00 | 0.00 | 0.00 | 75 | 1010.7 |
| 20260504043055 | 37 | 0 | 0.0 | 0.9 | 0.00 | 0.00 | 0.00 | 75 | 1010.7 |
| 20260504041556 | 37 | 0 | 0.0 | 0.9 | 0.00 | 0.00 | 0.00 | 75 | 1010.6 |
| 20260504034558 | 38 | 0 | 0.0 | 0.9 | 0.00 | 0.00 | 0.00 | 73 | 1010.4 |
| 20260504033124 | 38 | 0 | 0.0 | 0.9 | 0.00 | 0.00 | 0.00 | 73 | 1010.3 |
| 20260504031554 | 38 | 0 | 0.0 | 0.0 | 0.00 | 0.00 | 0.00 | 72 | 1010.3 |
| 20260504030051 | 39 | 0 | 0.0 | 1.7 | 0.00 | 0.00 | 0.00 | 71 | 1010.3 |
| 20260504024546 | 40 | 0 | 0.0 | 0.9 | 0.00 | 0.00 | 0.00 | 70 | 1010.3 |
| 20260504023059 | 40 | 0 | 0.0 | 0.0 | 0.00 | 0.00 | 0.00 | 68 | 1010.3 |
| 20260504021552 | 41 | 0 | 0.0 | 0.0 | 0.00 | 0.00 | 0.00 | 66 | 1010.3 |
| 20260504020057 | 42 | 0 | 0.0 | 0.0 | 0.00 | 0.00 | 0.00 | 63 | 1010.2 |
| 20260504014555 | 43 | 0 | 0.0 | 0.0 | 0.00 | 0.00 | 0.00 | 58 | 1010.1 |
| 20260504013058 | 43 | 0 | 0.0 | 0.0 | 0.00 | 0.00 | 0.00 | 57 | 1010.0 |
| 20260504011543 | 45 | 0 | 0.0 | 0.0 | 0.00 | 0.00 | 0.00 | 55 | 1009.9 |
| 20260504010059 | 46 | 0 | 0.0 | 0.0 | 0.00 | 0.00 | 0.00 | 53 | 1009.8 |
| 20260504004600 | 47 | 0 | 0.0 | 0.0 | 0.00 | 0.00 | 0.00 | 51 | 1009.6 |
| 20260504003048 | 48 | 0 | 0.0 | 0.0 | 0.00 | 0.00 | 0.00 | 50 | 1009.3 |
| 20260504001551 | 49 | 0 | 0.0 | 2.6 | 0.00 | 0.00 | 0.00 | 47 | 1009.1 |
| 20260504000050 | 49 | 63 | 0.0 | 3.5 | 0.00 | 0.00 | 0.00 | 46 | 1008.9 |
| 20260503234549 | 50 | 159 | 0.0 | 3.5 | 0.00 | 0.00 | 0.00 | 45 | 1008.8 |
| 20260503233050 | 51 | 221 | 0.9 | 8.7 | 0.00 | 0.00 | 0.00 | 43 | 1008.6 |
| 20260503231556 | 51 | 232 | 0.9 | 7.8 | 0.00 | 0.00 | 0.00 | 42 | 1008.3 |
| 20260503230057 | 51 | 345 | 0.0 | 5.2 | 0.00 | 0.00 | 0.00 | 43 | 1008.2 |